カタログに戻る

FENGYUN 1C DEB

運用中SSO
NORAD 37920·DEBRIS·🇨🇳 China

打ち上げ May 10, 1999 から Taiyuan Satellite Launch Center

Loading…

次のパス (今後24時間)

TLE

経年Source: Space-Track

元期: Sep 7, 2026, 04:29 UTC

1 37920U 99025ENV 26250.18726962  .00002464  00000-0  10109-2 0  9991
2 37920  98.8294 331.7554 0055535 163.0573 228.6696 14.27170610679672

AllMySatでFENGYUN 1C DEBをリアルタイム追跡

Download on the App Store